Zurück zum Katalog

STARLINK-31025

AktivKommunikationVLEO
NORAD 58634·PAYLOAD·🇺🇸 United States

Gestartet Dec 23, 2023 von Cape Canaveral Space Force Station

Loading…

Nächste Überflüge (nächste 24 Stunden)

TLE

AktuellSource: CelesTrak SupGP

Epoche: Sep 15, 2026, 02:45 UTC

1 58634C 23203S   26258.11506944 -.00002579  00000+0 -93504-4 0  2586
2 58634  43.0019  76.9306 0001598 268.9939 145.6567 15.27548485    19

Verfolge STARLINK-31025 in Echtzeit mit AllMySat

Download on the App Store